Weather History for Three Rivers, MI

Change the Weather History Date:

Monday, July 7, 2014

  Actual Average Record
Temperature  
Mean Temperature 76 °F -  
Max Temperature 83 °F 84 °F 99 °F (1988)
Min Temperature 67 °F 58 °F 46 °F (1959)
Cooling Degree Days 10    
Growing Degree Days 26 (Base 50)    
Moisture  
Dew Point 70 °F    
Average Humidity 80    
Maximum Humidity 97    
Minimum Humidity 55    
Precipitation  
Precipitation 0.00 in - - ()
Sea Level Pressure  
Sea Level Pressure 29.74 in    
Wind  
Wind Speed 10 mph (WSW)    
Max Wind Speed 18 mph    
Max Gust Speed 26 mph    
Visibility 10 miles    
Events Rain    
Averages and records for this station are not official NWS values.
T = Trace of Precipitation, MM = Missing Value Source: NWS Daily Summary

Daily Weather History Graph

Daily Weather History Graph

Search for Another Location

Airport:

Trip Planner

Search our weather history database for the weather conditions in past years. The results will help you decide how hot, cold, wet, or windy it might be!

Date:

Astronomy

Jul. 07, 2014 Rise Set
Actual Time 6:14 AM EDT 9:20 PM EDT
Civil Twilight 5:40 AM EDT 9:53 PM EDT
Nautical Twilight 4:56 AM EDT 10:37 PM EDT
Astronomical Twilight 4:05 AM EDT 11:28 PM EDT
Moon 4:19 PM EDT (7/7) 2:10 AM EDT (7/7)
Length of Visible Light 16h 13m
Length of Day
15h 05m
Waxing Gibbous, 72% of the Moon is Illuminated
Jul 7
Waxing Gibbous
Jul 12
Full
Jul 18
Last Quarter
Jul 26
New
Aug 3
First Quarter

Hourly Weather History & Observations

Time (EDT) Temp. Heat Index Dew Point Humidity Pressure Visibility Wind Dir Wind Speed Gust Speed Precip Events Conditions
12:15 AM 75.9 °F - 72.5 °F 89% 29.78 in 10.0 mi SW 11.5 mph 18.4 mph N/A   Mostly Cloudy
12:34 AM 75.9 °F - 72.5 °F 89% 29.76 in 10.0 mi SSW 12.7 mph 17.3 mph N/A   Mostly Cloudy
12:55 AM 75.6 °F - 72.0 °F 89% 29.75 in 10.0 mi SSW 17.3 mph 20.7 mph N/A   Scattered Clouds
1:15 AM 75.9 °F - 71.6 °F 86% 29.74 in 10.0 mi SW 18.4 mph 26.5 mph N/A   Clear
1:35 AM 76.1 °F - 71.2 °F 85% 29.75 in 10.0 mi SW 10.4 mph 20.7 mph N/A   Scattered Clouds
1:55 AM 76.1 °F - 71.2 °F 85% 29.74 in 10.0 mi SW 12.7 mph 17.3 mph N/A   Mostly Cloudy
2:14 AM 76.1 °F - 71.1 °F 84% 29.73 in 10.0 mi SW 11.5 mph 21.9 mph N/A   Mostly Cloudy
2:35 AM 76.1 °F - 70.9 °F 84% 29.72 in 10.0 mi SW 13.8 mph 20.7 mph N/A   Mostly Cloudy
2:55 AM 76.1 °F - 70.9 °F 84% 29.70 in 10.0 mi SW 13.8 mph 21.9 mph N/A   Scattered Clouds
3:14 AM 76.1 °F - 71.1 °F 84% 29.70 in 10.0 mi SW 12.7 mph 20.7 mph N/A   Mostly Cloudy
3:35 AM 76.5 °F - 71.1 °F 83% 29.71 in 10.0 mi WSW 13.8 mph 19.6 mph N/A   Mostly Cloudy
3:55 AM 76.6 °F - 71.2 °F 83% 29.71 in 10.0 mi SW 12.7 mph 21.9 mph N/A   Mostly Cloudy
4:14 AM 77.0 °F - 71.2 °F 82% 29.71 in 10.0 mi WSW 16.1 mph 26.5 mph N/A   Overcast
4:35 AM 75.6 °F - 70.2 °F 83% 29.72 in 10.0 mi West 10.4 mph 25.3 mph N/A Rain Light Rain
4:55 AM 73.9 °F - 69.6 °F 86% 29.72 in 10.0 mi WSW 11.5 mph 19.6 mph N/A Rain Rain
5:14 AM 72.1 °F - 69.1 °F 90% 29.72 in 10.0 mi West 5.8 mph - N/A Rain Rain
5:35 AM 71.6 °F - 69.1 °F 92% 29.72 in 10.0 mi Calm Calm - N/A Rain Rain
5:55 AM 71.1 °F - 69.6 °F 95% 29.72 in 10.0 mi Calm Calm - N/A Rain Light Rain
6:14 AM 71.1 °F - 70.2 °F 97% 29.72 in 10.0 mi SW 5.8 mph - N/A   Overcast
6:35 AM 73.0 °F - 72.0 °F 96% 29.72 in 7.0 mi WSW 6.9 mph - N/A   Overcast
6:55 AM 73.4 °F - 72.0 °F 95% 29.72 in 7.0 mi WSW 8.1 mph - N/A   Overcast
7:14 AM 73.4 °F - 71.8 °F 95% 29.73 in 7.0 mi WSW 8.1 mph - N/A   Overcast
7:35 AM 73.4 °F - 71.4 °F 93% 29.73 in 7.0 mi WSW 9.2 mph - N/A   Overcast
7:55 AM 73.4 °F - 71.6 °F 94% 29.73 in 7.0 mi WSW 9.2 mph - N/A   Overcast
8:14 AM 74.3 °F - 71.8 °F 92% 29.73 in 10.0 mi WSW 6.9 mph - N/A   Overcast
8:35 AM 74.3 °F - 71.4 °F 91% 29.74 in 10.0 mi WSW 11.5 mph - N/A   Overcast
8:55 AM 74.3 °F - 71.6 °F 91% 29.74 in 10.0 mi WSW 8.1 mph - N/A   Overcast
9:14 AM 74.5 °F - 71.6 °F 91% 29.74 in 10.0 mi WSW 8.1 mph - N/A   Overcast
9:35 AM 75.0 °F - 71.8 °F 90% 29.74 in 10.0 mi WSW 6.9 mph - N/A   Overcast
9:54 AM 75.4 °F - 72.0 °F 89% 29.74 in 10.0 mi West 5.8 mph - N/A   Overcast
10:14 AM 75.4 °F - 71.8 °F 89% 29.74 in 10.0 mi WSW 8.1 mph - N/A   Overcast
10:35 AM 77.0 °F - 72.1 °F 85% 29.74 in 10.0 mi WSW 9.2 mph - N/A   Overcast
10:54 AM 76.6 °F - 72.1 °F 86% 29.75 in 10.0 mi WSW 4.6 mph - N/A   Overcast
11:15 AM 77.0 °F - 72.0 °F 84% 29.75 in 10.0 mi WSW 6.9 mph - N/A   Overcast
11:35 AM 77.5 °F - 72.3 °F 84% 29.75 in 10.0 mi WSW 5.8 mph - N/A   Mostly Cloudy
11:54 AM 78.8 °F - 72.9 °F 82% 29.75 in 10.0 mi WSW 9.2 mph 16.1 mph N/A   Mostly Cloudy
12:15 PM 79.7 °F - 73.2 °F 80% 29.75 in 10.0 mi WSW 6.9 mph - N/A   Mostly Cloudy
12:35 PM 79.9 °F - 72.7 °F 79% 29.75 in 10.0 mi West 9.2 mph - N/A   Mostly Cloudy
12:54 PM 81.1 °F 86.0 °F 73.0 °F 76% 29.75 in 10.0 mi West 10.4 mph - N/A   Mostly Cloudy
1:15 PM 81.7 °F 86.7 °F 72.5 °F 74% 29.74 in 10.0 mi WSW 10.4 mph 16.1 mph N/A   Mostly Cloudy
1:35 PM 82.4 °F 87.9 °F 73.0 °F 73% 29.74 in 10.0 mi West 12.7 mph 18.4 mph N/A   Mostly Cloudy
1:54 PM 82.4 °F 87.9 °F 72.9 °F 73% 29.74 in 10.0 mi West 13.8 mph 23.0 mph N/A   Scattered Clouds
2:15 PM 81.7 °F 86.5 °F 72.1 °F 73% 29.74 in 10.0 mi West 13.8 mph 18.4 mph N/A   Mostly Cloudy
2:35 PM 81.7 °F 86.5 °F 72.3 °F 73% 29.75 in 10.0 mi WNW 12.7 mph 21.9 mph N/A   Mostly Cloudy
2:54 PM 82.4 °F 87.0 °F 71.4 °F 69% 29.74 in 10.0 mi West 15.0 mph 20.7 mph N/A   Scattered Clouds
3:14 PM 82.6 °F 87.6 °F 72.0 °F 70% 29.74 in 10.0 mi West 11.5 mph - N/A   Clear
3:34 PM 83.1 °F 88.6 °F 72.3 °F 70% 29.75 in 10.0 mi West 11.5 mph 18.4 mph N/A   Scattered Clouds
3:55 PM 82.6 °F 87.1 °F 71.1 °F 68% 29.75 in 10.0 mi WNW 13.8 mph 18.4 mph N/A   Clear
4:35 PM 83.3 °F 87.9 °F 70.9 °F 66% 29.74 in 10.0 mi WNW 12.7 mph 16.1 mph N/A   Scattered Clouds
4:55 PM 82.8 °F 86.2 °F 69.1 °F 63% 29.74 in 10.0 mi WNW 11.5 mph 19.6 mph N/A   Scattered Clouds
5:14 PM 82.6 °F 85.9 °F 68.9 °F 63% 29.73 in 10.0 mi WNW 11.5 mph - N/A   Clear
5:35 PM 82.2 °F 85.5 °F 68.7 °F 64% 29.73 in 10.0 mi WNW 9.2 mph - N/A   Clear
5:55 PM 82.4 °F 85.2 °F 67.6 °F 61% 29.74 in 10.0 mi NW 10.4 mph - N/A   Clear
6:14 PM 81.7 °F 83.8 °F 66.2 °F 59% 29.75 in 10.0 mi WNW 12.7 mph 16.1 mph N/A   Clear
6:35 PM 81.9 °F 84.6 °F 67.6 °F 62% 29.75 in 10.0 mi WNW 5.8 mph - N/A   Clear
6:55 PM 81.0 °F 83.3 °F 66.7 °F 62% 29.75 in 10.0 mi NW 6.9 mph - N/A   Clear
7:14 PM 81.0 °F 82.7 °F 64.9 °F 58% 29.75 in 10.0 mi NW 5.8 mph - N/A   Clear
7:35 PM 80.6 °F 81.9 °F 63.0 °F 55% 29.76 in 10.0 mi NW 9.2 mph - N/A   Clear
7:55 PM 79.7 °F - 64.2 °F 59% 29.76 in 10.0 mi WNW 6.9 mph - N/A   Clear
8:14 PM 79.2 °F - 64.9 °F 62% 29.76 in 10.0 mi West 5.8 mph - N/A   Clear
8:35 PM 76.5 °F - 66.2 °F 70% 29.76 in 10.0 mi West 3.5 mph - N/A   Clear
8:55 PM 76.1 °F - 64.0 °F 66% 29.76 in 10.0 mi Calm Calm - N/A   Clear
9:15 PM 73.4 °F - 65.3 °F 76% 29.76 in 10.0 mi Calm Calm - N/A   Clear
9:35 PM 72.3 °F - 64.9 °F 78% 29.75 in 10.0 mi Calm Calm - N/A   Clear
9:54 PM 71.1 °F - 65.3 °F 82% 29.76 in 10.0 mi Calm Calm - N/A   Clear
10:15 PM 70.2 °F - 64.8 °F 83% 29.75 in 10.0 mi Calm Calm - N/A   Clear
10:35 PM 68.9 °F - 65.5 °F 89% 29.75 in 10.0 mi Calm Calm - N/A   Clear
10:54 PM 68.9 °F - 65.7 °F 89% 29.75 in 10.0 mi Calm Calm - N/A   Clear
11:15 PM 68.0 °F - 65.5 °F 92% 29.75 in 10.0 mi Calm Calm - N/A   Clear
11:35 PM 68.0 °F - 65.8 °F 93% 29.75 in 10.0 mi South 3.5 mph - N/A   Clear
11:54 PM 67.6 °F - 65.3 °F 92% 29.75 in 10.0 mi South 4.6 mph - N/A   Clear